sat.trackr.live / text

‹ back to catalog

SHENZHOU-22

NORAD 66645 · 2025-272A

PAYLOAD ACTIVE UNKNOWN

§ Identity

Operator
Country
PRC
Launch date
2025-11-25
Launch site
JSC
Launch vehicle
Mass (kg)
RCS (m²)

Purposes: station

External: N2YO · Heavens-Above · Gunter

§ Orbital elements

Epoch: 2026-05-29T05:22:42.079296Z

Period
92.31 min
Inclination
41.4692°
Eccentricity
0.0010760
Mean motion
15.59946052 rev/d
Perigee alt
380.5 km
Apogee alt
395.1 km
Semi-major
6,766.0 km
B*
2.6640e-4
RAAN
77.3333°
Arg perigee
301.6014°
Mean anomaly
58.3774°
Rev number
29,028

§ Raw data

SHENZHOU-221 66645U 25272A   26149.22409814  .00021890  00000+0  26640-3 0  99972 66645  41.4692  77.3333 0010760 301.6014  58.3774 15.59946052290281

JSON: /api/v1/satellites/66645 · /tle

For live sub-satellite position, see the globe view (requires WebGL).

§ Visibility from observer

Set your observer location to see the next 7 days of passes ≥ 10°. The values pass through the URL so the page stays shareable.

No JS? Fill the form by hand. The geolocation button needs JavaScript.